Location: ????
(32.1228°N, 34.8377°E)
Time: 03:30:52
(UTC+00:00)

Cosmos 2208 Rocket - Pass Details

Date: 21 September 2020
Orbit: 754 x 805 km, 74.0° (Epoch: 23 October)

Event Time Altitude Azimuth Distance (km) Brightness Sun altitude
Exits shadow 02:06:33 - 193° (SSW) 3,120 6.9 -18.0°
Reaches altitude 10° 02:08:37 10° 192° (SSW) 2,314 6.2 -17.6°
Maximum altitude 02:13:52 82° 106° (ESE) 778 4.0 -16.5°
Drops below altitude 10° 02:19:04 10° 18° (NNE) 2,297 6.9 -15.4°
Sets 02:21:26 0° 18° (NNE) 3,220 7.6 -14.9°
